Theta_e
327 321 318 317 315 313 310 309 296 300 306 294 295 297 296 305 308 306 309 312 310 316 317 327 326 326 325 326 328 330 332 327 328 311 311 333 341 341 342 342 344 344 344 345 346 348 350 352 353 352 353 353 353 353 354 354 354 354 354 354 354 354 354 354 354 353 353 353 353 353 353 353 353 352 352 352 351 351 351 351 350 351 350 350 350 350 350 348 348 348 349 348 347 345 344 343 342
324 320 318 316 313 311 303 306 300 296 296 293 296 299 301 305 306 309 310 311 312 314 316 327 330 332 333 333 333 333 331 334 334 333 338 340 341 341 342 343 343 342 343 345 347 348 349 351 353 353 353 353 353 354 354 354 355 355 355 355 354 354 354 353 354 354 354 353 353 353 353 352 352 352 352 351 351 351 351 350 350 350 350 350 350 349 349 348 348 348 348 347 347 345 344 344 343
324 321 316 315 311 308 305 305 295 293 294 290 295 300 305 303 304 311 310 311 314 315 317 324 326 325 329 331 328 327 321 338 337 339 337 340 335 337 342 343 343 343 343 344 345 347 349 351 353 353 353 353 353 354 354 354 354 354 354 354 354 354 354 354 353 353 353 352 352 352 352 352 351 351 351 351 351 351 351 351 351 351 350 350 350 349 348 348 347 347 346 347 346 346 345 344 342
323 319 313 309 303 307 301 299 299 296 294 291 294 301 302 304 305 309 311 315 314 315 321 325 323 328 328 325 328 335 332 333 339 338 336 337 337 340 341 341 344 344 344 345 345 347 349 352 354 353 354 354 354 354 354 354 354 354 354 354 354 354 353 353 353 353 352 352 352 351 351 351 350 350 350 350 350 350 351 351 350 349 349 349 348 348 348 347 347 347 347 347 346 346 345 344 342
319 320 314 312 307 303 302 302 296 295 291 294 294 301 304 306 306 309 312 315 314 313 320 325 324 330 331 328 329 324 326 337 338 341 339 341 342 341 340 341 342 342 343 345 346 348 350 353 354 354 354 354 354 354 354 354 354 354 354 354 354 354 353 353 353 353 352 351 351 351 350 350 350 350 350 349 349 349 349 349 349 348 348 348 347 346 345 345 346 347 347 348 347 346 346 344 343
312 311 315 312 305 307 302 295 294 292 296 299 296 301 305 307 307 309 310 312 311 315 316 325 324 325 326 329 331 325 336 330 339 342 342 339 341 342 342 344 342 341 342 344 346 348 350 354 354 354 354 354 354 354 354 354 353 353 353 353 353 353 353 353 352 351 351 351 351 350 349 349 349 349 348 348 348 348 348 347 347 347 346 346 346 346 345 345 346 347 348 348 348 346 345 344 345
308 308 306 310 309 307 296 293 292 293 297 301 299 302 305 307 309 309 310 308 310 314 327 326 330 328 323 330 335 336 343 344 341 342 343 341 342 342 344 342 341 340 343 344 346 348 351 353 353 353 354 354 354 354 353 353 353 353 353 353 353 353 353 352 351 351 351 350 350 348 348 347 347 347 347 346 346 346 346 346 346 346 345 345 346 347 345 345 347 348 348 348 348 347 347 345 343
315 307 304 299 297 303 296 294 294 295 297 302 303 304 306 308 310 310 308 308 306 307 322 326 326 324 323 334 326 340 344 347 345 346 343 342 342 343 344 342 340 340 342 343 345 349 354 353 354 353 354 354 354 354 353 353 353 353 353 353 353 353 352 352 351 351 351 350 350 348 347 347 347 345 345 345 344 344 344 344 344 345 345 344 345 345 344 345 346 348 348 349 348 348 347 346 345
313 307 310 300 297 300 294 293 295 300 301 304 305 308 315 310 311 309 308 307 309 309 322 327 329 322 324 330 330 339 342 346 347 347 344 343 342 343 342 341 340 340 342 343 346 349 351 353 353 353 354 354 354 354 353 353 353 353 353 353 352 352 351 351 351 350 350 349 349 348 347 346 346 345 344 344 344 343 343 343 342 342 343 343 344 344 345 345 346 346 347 349 349 348 347 347 346
308 305 298 298 298 294 292 292 293 296 300 303 304 305 307 309 309 310 308 307 307 308 322 329 331 324 330 327 332 337 339 346 346 344 345 344 343 343 342 341 342 341 341 343 346 348 350 355 353 353 353 354 354 353 353 353 353 353 353 352 352 352 351 351 350 350 349 349 348 346 346 345 345 344 343 342 342 342 343 343 342 343 343 343 343 344 343 345 345 346 347 348 348 348 348 347 347
300 305 307 302 295 291 291 292 295 299 301 304 306 308 309 310 308 306 306 307 309 307 329 333 328 328 330 330 331 343 345 346 344 341 345 344 344 343 341 343 342 341 340 342 345 347 350 351 354 353 353 354 353 353 353 353 353 353 352 352 351 351 350 350 349 349 348 348 347 347 346 345 344 344 344 344 342 341 341 341 341 341 341 342 342 342 343 344 344 344 346 347 347 347 347 348 345
298 297 301 293 292 292 292 293 296 298 301 302 303 307 308 308 308 305 305 304 306 306 310 331 327 334 328 329 330 340 344 344 343 344 345 345 343 343 342 342 341 341 340 341 344 346 349 351 351 355 353 353 353 353 353 353 353 352 352 351 351 350 350 349 349 348 348 347 347 346 345 345 345 345 344 343 343 342 340 340 342 342 341 341 341 342 342 342 343 344 346 347 347 347 348 346 347
299 299 296 294 292 293 295 295 296 300 299 301 303 308 308 307 305 306 305 306 307 305 315 332 335 334 325 328 334 340 340 342 344 345 344 343 343 343 342 340 341 341 341 342 343 345 348 349 350 351 353 354 353 353 353 352 352 352 351 351 350 350 349 349 349 348 347 347 346 345 345 344 344 345 345 344 344 343 341 340 341 341 341 341 341 341 341 341 342 343 344 346 346 347 346 346 346
301 300 298 293 296 295 295 295 297 296 296 301 306 308 308 308 308 307 304 305 307 313 330 336 336 335 329 331 333 334 338 343 344 344 344 344 344 342 341 341 341 341 341 340 341 344 346 348 350 350 351 351 351 352 353 352 351 351 351 350 350 350 349 349 348 347 347 346 346 345 345 345 345 344 344 344 344 343 342 341 340 341 341 341 341 341 341 341 341 343 343 344 345 346 347 346 346
301 302 299 296 293 294 295 294 294 295 295 301 306 307 306 310 308 307 306 303 318 330 335 342 337 331 324 328 327 333 339 342 343 344 343 344 344 342 341 341 341 340 340 340 341 342 344 346 348 348 349 349 349 349 349 350 351 351 350 350 350 350 349 348 348 347 346 346 346 345 345 345 345 345 344 344 344 344 343 342 340 339 340 340 340 341 339 341 341 341 343 343 344 346 346 347 346
304 302 298 294 291 292 294 296 297 296 297 303 307 307 305 307 309 307 310 310 319 334 335 326 335 331 333 331 333 338 341 342 343 343 343 343 343 342 341 340 339 339 340 340 340 341 342 344 345 345 346 347 347 347 348 349 351 351 350 350 350 349 349 348 348 347 347 347 347 346 346 345 344 343 345 344 345 344 344 343 342 339 340 340 340 339 339 339 340 342 342 341 344 345 347 347 347
306 303 293 292 290 293 294 295 296 293 298 303 306 306 304 305 308 314 317 326 326 328 327 330 332 338 335 336 339 341 342 342 343 342 341 341 341 339 339 339 339 339 340 339 339 340 341 342 342 343 344 345 346 347 348 348 349 350 350 350 350 349 349 348 348 348 347 347 347 346 346 342 340 340 341 341 345 342 345 344 343 342 339 339 340 340 340 339 340 340 341 341 342 342 346 347 346
303 296 292 291 292 293 297 298 298 300 300 302 304 305 306 302 308 314 315 331 333 334 334 335 335 337 339 340 341 342 341 341 341 339 338 338 339 338 337 337 338 337 338 338 340 341 340 340 340 342 342 343 345 346 348 348 349 349 347 346 345 347 348 348 345 343 349 342 347 345 342 344 343 340 340 346 343 343 343 343 343 344 342 340 339 340 340 340 340 341 342 341 340 342 344 339 342
300 295 294 292 295 297 300 301 302 301 301 304 304 306 305 305 305 308 310 328 330 331 332 334 334 336 338 340 340 340 341 340 340 339 337 337 337 337 337 338 338 337 337 339 339 340 340 340 340 340 339 342 343 344 346 347 347 346 346 345 346 348 348 346 344 347 343 343 344 344 344 344 344 342 343 347 346 345 344 344 344 344 344 343 341 341 340 341 341 341 341 342 341 341 338 338 340
302 296 293 295 299 299 302 303 303 304 304 303 304 305 305 307 306 310 306 324 329 328 328 331 331 332 335 337 339 340 340 339 339 338 338 338 338 337 337 337 337 337 338 340 340 341 341 341 340 341 340 341 341 342 343 343 343 344 344 344 343 344 344 346 344 344 343 341 344 342 345 345 345 344 351 350 352 344 341 345 344 345 345 345 344 343 342 342 342 342 342 342 343 341 334 337 340
301 299 295 296 300 299 302 304 304 305 305 304 304 305 304 306 307 308 305 302 326 329 332 332 331 333 335 337 338 339 339 338 339 338 338 338 339 339 338 338 337 338 339 341 342 342 342 344 344 344 342 342 341 341 342 341 341 342 343 341 342 342 342 341 342 342 342 341 340 344 343 346 345 344 343 343 340 340 338 339 339 339 339 339 344 340 339 339 339 336 331 333 331 332 333 333 336
302 299 301 301 301 299 303 305 305 305 304 303 303 302 303 307 306 305 304 301 304 329 333 336 336 336 336 336 338 339 338 338 338 338 337 337 338 338 339 339 338 340 340 339 339 343 341 342 342 343 343 342 339 339 340 342 341 338 338 338 339 339 341 341 341 341 339 342 342 345 345 342 343 343 343 342 343 341 340 339 339 338 339 341 343 340 339 339 334 333 329 327 327 329 330 331 334
297 299 301 302 303 301 304 305 304 303 304 302 302 305 306 305 303 305 322 320 323 332 337 338 338 339 339 339 339 338 338 337 338 338 338 337 338 336 334 334 335 334 338 338 338 341 342 341 342 343 342 341 339 339 339 340 337 336 336 336 336 335 338 339 339 338 341 343 342 344 340 339 339 340 340 340 339 341 340 341 341 341 342 341 344 338 337 340 333 328 327 325 325 327 328 329 330
301 297 300 302 304 302 305 304 305 302 302 303 305 306 304 302 299 307 320 324 328 336 339 339 339 340 340 338 338 337 338 338 338 339 339 336 332 330 332 332 336 336 339 339 339 340 340 341 344 343 341 341 340 340 337 336 337 337 336 341 340 339 340 337 340 341 343 343 343 343 344 338 339 338 339 339 339 339 340 341 342 342 343 342 344 343 340 339 340 335 333 330 329 328 328 328 329
300 299 302 303 304 304 305 304 304 303 304 304 304 302 301 302 304 306 320 325 334 337 338 338 339 338 338 337 337 337 337 338 338 335 332 333 333 334 335 335 336 337 337 337 337 338 340 342 342 342 340 337 335 334 333 336 336 337 337 337 338 347 339 341 342 342 341 343 344 346 345 338 338 337 336 338 339 339 341 341 342 342 341 341 341 343 342 341 340 339 337 336 335 335 333 333 335
302 301 302 303 303 304 304 304 304 303 305 306 303 301 302 303 305 309 323 326 332 338 337 337 337 336 336 337 336 335 335 330 328 329 330 333 334 332 331 334 333 334 336 336 339 338 339 341 340 338 335 334 333 335 335 335 336 335 337 340 343 344 343 343 342 342 341 341 343 344 345 341 339 336 336 337 339 339 340 341 344 342 341 341 341 340 340 342 339 337 338 338 336 335 336 335 334
303 302 302 302 303 303 304 302 303 304 304 303 301 300 301 303 304 316 326 329 332 333 333 335 334 330 328 326 324 324 325 328 328 328 330 330 330 329 330 332 333 334 336 335 337 338 337 335 335 336 336 340 340 339 337 339 341 340 342 343 344 345 345 345 342 341 341 342 343 343 344 344 339 338 337 336 337 338 340 339 341 340 341 341 341 341 341 341 341 339 337 336 336 335 334 337 334
303 303 303 302 303 303 304 303 303 302 303 303 302 300 301 302 303 305 324 328 331 330 327 322 320 322 325 327 326 326 325 327 330 329 327 328 329 329 330 331 332 334 334 335 335 334 333 333 335 339 338 340 341 341 342 341 341 342 343 343 342 344 346 342 341 342 341 339 341 342 343 342 341 339 339 337 337 337 339 339 340 337 338 340 341 339 339 341 340 339 337 337 336 334 333 334 335
302 302 297 300 302 301 303 301 303 304 302 304 303 301 298 300 298 308 326 324 324 320 319 321 323 324 324 326 326 326 326 327 329 328 328 331 332 332 331 336 333 334 335 336 336 334 335 337 336 336 336 338 340 340 341 341 341 342 342 342 343 344 341 339 339 339 340 342 341 341 341 342 341 338 338 337 338 337 338 337 338 339 340 340 338 339 340 340 338 337 337 337 338 336 334 335 337
302 301 298 297 297 297 301 303 303 302 303 303 302 289 290 296 313 323 322 321 322 321 320 322 322 321 322 324 325 326 328 328 328 329 331 332 333 333 332 334 335 334 334 337 339 338 338 337 337 337 337 338 338 339 340 341 341 342 342 341 342 341 339 340 341 340 341 338 337 339 340 341 340 341 337 337 338 339 338 335 338 339 338 338 338 339 338 336 335 336 335 335 338 335 333 333 333
296 298 298 291 290 291 300 301 301 300 303 303 302 290 291 312 319 321 322 322 321 319 320 320 320 320 321 321 324 326 328 329 329 330 331 332 333 335 337 341 338 337 337 336 336 336 336 335 336 335 337 335 336 336 338 338 339 340 340 340 338 339 340 339 339 338 338 340 338 339 340 339 341 341 341 338 338 338 336 335 336 337 337 336 337 336 336 336 336 335 333 333 332 330 330 332 332
296 291 289 291 291 292 299 302 301 298 301 304 299 291 295 315 317 321 324 322 321 318 318 318 318 318 319 321 323 325 326 329 330 331 331 332 333 335 337 337 339 337 337 337 337 336 335 335 336 334 334 334 334 337 337 337 338 338 339 339 334 336 338 337 336 336 338 337 339 339 341 342 340 340 339 340 337 336 336 336 338 339 338 337 337 337 337 336 334 334 334 332 329 330 331 331 330
293 291 290 289 291 292 296 300 302 302 301 302 299 291 312 313 318 322 322 320 319 316 316 317 317 319 320 320 321 323 324 325 327 329 331 331 332 335 337 338 337 338 338 337 336 336 335 335 335 334 333 333 334 336 335 335 337 337 337 336 337 337 336 336 337 338 338 337 339 336 337 338 338 338 337 336 337 339 338 339 339 338 340 338 338 336 336 336 335 337 333 333 331 328 331 332 332
288 291 287 292 291 291 290 297 300 301 301 297 299 295 310 314 317 319 320 319 317 316 316 317 318 318 319 319 320 322 323 323 324 327 328 330 332 335 336 339 337 337 338 337 336 335 334 332 331 332 333 333 333 334 335 335 336 337 335 334 336 335 335 336 337 336 336 338 339 337 337 339 339 337 337 338 339 340 338 338 338 339 339 338 337 336 335 336 335 334 333 333 335 331 331 331 331
287 288 288 290 293 293 293 293 298 299 300 298 296 302 311 315 316 316 318 319 317 315 316 316 317 317 318 318 319 321 322 323 324 327 329 330 332 333 335 335 335 336 336 336 335 334 333 332 334 334 333 331 332 334 335 334 335 334 333 333 333 333 334 336 336 336 335 336 337 338 339 338 339 339 338 337 338 338 337 336 335 336 336 335 335 334 333 333 333 333 331 332 334 334 332 332 331
292 292 290 291 290 291 292 297 300 299 297 297 295 305 310 312 314 315 316 317 315 315 316 316 317 318 318 318 319 320 321 323 326 328 329 330 330 332 333 334 334 335 335 335 334 333 332 333 333 332 331 332 334 334 334 334 333 332 332 332 331 332 333 335 335 334 334 334 337 337 338 335 335 336 334 333 333 336 335 333 333 333 333 333 332 332 331 331 331 330 330 330 329 331 332 332 330
295 295 293 293 293 293 297 298 300 301 298 296 295 310 311 311 312 313 315 315 315 315 315 315 316 317 317 318 318 319 320 321 325 326 329 330 331 332 333 334 334 334 334 334 333 333 333 332 331 330 332 334 333 332 331 330 329 330 330 329 328 330 331 332 333 333 333 335 333 331 330 330 330 332 332 330 329 332 332 332 331 330 330 331 333 333 333 331 331 328 328 328 327 327 328 330 328
295 294 293 292 294 292 296 297 300 301 297 294 308 311 310 310 311 313 315 315 313 314 315 316 316 318 319 318 318 320 322 325 326 326 328 330 331 332 333 333 333 331 332 333 333 333 332 332 333 334 334 333 332 332 332 330 329 329 329 329 330 330 330 331 331 332 330 330 329 328 328 327 326 327 330 328 327 326 326 328 328 326 327 328 330 329 330 331 327 326 326 324 326 325 326 328 327
294 292 292 291 293 296 298 298 299 300 298 299 310 308 308 311 312 313 314 315 315 317 318 318 317 318 318 319 319 320 321 322 325 326 328 329 331 332 332 332 332 332 332 332 333 333 333 332 332 332 332 332 332 334 332 330 330 330 328 328 330 330 333 334 332 329 328 326 327 327 327 326 326 325 325 328 326 325 324 324 324 323 322 326 323 323 323 323 323 322 324 322 321 323 324 327 324
292 292 289 288 293 292 289 296 298 300 298 306 308 306 307 310 312 313 316 317 318 320 321 319 319 319 319 320 320 320 321 322 323 325 327 329 330 331 331 331 331 332 331 332 333 333 332 331 330 331 331 331 332 333 333 331 331 331 331 332 332 332 331 332 330 328 326 325 323 324 324 324 323 322 322 323 324 324 323 322 323 322 321 322 322 320 320 320 320 321 321 322 320 318 319 320 323
293 293 292 291 292 294 293 293 295 300 313 313 310 306 304 307 307 309 314 319 320 321 321 320 321 322 322 322 322 322 321 323 324 325 327 328 329 329 330 331 332 331 331 332 332 332 332 330 330 330 330 329 331 333 332 332 332 331 331 330 331 332 332 330 327 325 326 325 322 321 320 321 322 321 320 320 322 320 320 320 320 320 320 321 321 319 318 319 319 319 319 319 318 315 315 316 318
291 294 294 294 295 294 295 296 295 300 302 308 306 292 296 306 308 309 313 316 316 318 317 317 318 319 320 319 320 323 323 324 324 325 326 328 328 329 330 331 331 331 331 333 333 332 332 331 330 329 330 331 331 331 331 331 330 329 327 327 326 325 323 323 323 322 322 321 320 321 320 320 320 319 318 318 318 321 318 318 317 317 317 318 318 317 317 318 318 317 317 317 316 315 314 313 311
288 291 297 296 296 295 295 295 293 288 293 304 306 293 289 304 306 309 312 314 314 316 315 316 317 317 317 317 319 320 321 324 326 326 327 328 328 328 329 330 330 330 331 332 331 332 332 331 330 331 331 329 330 328 329 330 328 328 327 327 327 324 322 322 323 324 323 322 322 320 319 318 317 316 316 316 316 318 317 316 316 316 316 316 319 316 316 315 316 316 316 315 314 315 313 309 309
289 296 296 297 295 294 294 294 292 290 298 306 301 299 295 295 304 311 313 312 313 313 314 316 317 318 317 318 319 319 322 324 325 325 326 327 328 329 328 329 330 330 330 331 331 332 331 331 330 330 330 330 329 329 329 328 327 328 328 327 326 323 322 321 322 322 323 322 320 319 319 317 315 315 315 315 315 316 317 315 315 315 315 316 318 315 315 314 315 315 315 313 314 313 311 308 307
292 296 297 295 296 295 296 294 292 294 295 292 292 299 291 292 301 311 312 309 311 312 313 315 316 316 317 317 318 321 324 324 325 324 325 326 327 328 328 328 330 330 330 330 330 331 330 330 329 328 328 329 330 330 330 330 330 327 326 325 323 324 323 322 322 322 320 319 317 317 317 316 314 314 314 314 314 314 317 315 314 314 315 315 316 314 314 314 313 312 311 311 310 311 311 310 307
296 298 298 298 297 297 296 293 291 293 292 286 292 296 287 289 302 306 309 309 308 310 312 314 313 314 315 316 318 321 324 324 325 325 326 326 327 328 328 329 329 329 330 331 330 329 327 326 326 326 326 326 326 328 329 329 327 326 324 323 322 322 321 321 320 319 317 316 314 313 314 313 312 311 312 312 312 313 313 314 313 313 313 314 315 312 312 311 312 312 311 310 310 309 309 309 308
299 298 296 295 295 293 294 293 291 290 283 287 296 297 294 284 299 304 304 305 310 311 312 313 314 314 315 316 317 321 323 323 323 325 326 326 327 328 328 327 327 328 329 329 327 326 325 324 323 322 322 322 322 322 322 322 324 325 323 323 322 321 321 320 319 317 315 314 312 312 312 311 311 310 310 310 311 312 312 314 312 312 313 314 312 311 310 310 310 310 311 309 309 309 308 307 308
297 293 292 290 290 292 290 288 292 282 279 288 298 298 296 285 293 305 310 312 313 312 311 311 312 313 315 315 317 321 323 322 323 324 324 324 325 326 326 325 325 325 325 325 324 323 323 322 321 320 320 320 320 320 320 320 320 320 321 322 322 322 321 320 319 317 315 313 312 311 311 310 309 310 309 308 308 310 311 309 311 310 311 310 309 310 310 310 310 310 309 308 307 308 308 309 306
295 292 290 285 281 284 280 283 280 281 279 289 295 297 292 290 298 306 309 310 313 315 315 312 312 313 314 316 317 320 324 323 323 323 323 323 323 323 323 323 323 323 323 323 323 322 320 319 318 317 317 318 319 319 319 319 318 318 318 318 318 319 317 317 317 316 316 314 312 311 309 308 308 307 307 306 307 308 310 309 308 308 308 310 310 309 309 308 308 308 308 307 306 306 307 306 305
292 290 286 283 278 279 276 279 281 282 290 296 294 296 289 293 298 309 308 311 315 316 316 315 313 314 314 317 318 320 323 323 323 323 323 323 323 323 323 322 322 322 322 322 321 320 319 318 317 316 316 316 317 317 317 317 317 317 317 315 315 315 315 315 314 313 313 314 313 310 309 307 306 306 306 306 308 308 308 309 309 308 308 309 310 309 308 308 307 307 307 307 306 305 306 305 305
292 294 290 284 284 283 276 279 278 280 284 291 296 290 284 287 290 309 310 313 316 317 317 316 317 316 316 318 319 320 323 322 323 323 323 323 323 322 322 322 322 322 322 321 319 318 317 316 316 316 315 316 316 314 313 313 314 314 314 314 314 314 313 313 314 314 313 312 310 308 307 307 306 306 306 307 309 307 307 308 309 307 307 307 307 307 309 306 306 306 307 307 307 305 304 305 304
292 294 293 288 285 287 280 283 286 286 284 286 289 285 295 292 305 310 312 314 316 317 316 317 316 317 317 317 318 320 322 322 322 322 322 323 322 321 321 321 321 321 321 319 318 317 316 316 315 315 314 314 314 313 312 312 312 312 312 312 313 314 314 313 312 313 313 312 310 309 307 306 307 306 307 307 307 307 306 306 307 306 306 306 306 306 306 306 306 305 304 305 305 308 304 303 303
289 292 287 288 295 293 285 287 292 284 284 281 285 292 299 305 306 310 312 313 314 315 316 316 316 317 317 318 320 320 321 321 321 321 321 321 321 321 321 321 321 320 319 318 317 317 316 315 314 313 313 313 312 312 311 311 311 311 312 312 312 312 312 311 311 311 312 311 309 308 307 307 307 307 308 307 306 306 306 305 305 305 305 306 305 305 305 305 305 304 304 303 303 304 304 303 302
291 287 287 298 299 297 289 281 284 283 279 281 290 289 293 294 286 305 309 309 311 313 314 315 316 317 317 317 319 319 320 320 321 321 321 321 321 320 321 321 320 319 318 318 318 318 316 315 314 312 311 310 310 310 310 311 311 310 310 311 311 311 311 311 311 311 311 309 308 307 306 306 305 307 308 308 305 305 305 308 304 304 304 305 305 305 304 304 304 303 304 303 303 303 303 303 304
291 289 298 292 284 283 287 284 279 278 278 280 285 294 293 293 294 302 305 306 308 310 313 314 314 315 316 317 318 319 319 319 319 319 319 319 320 320 320 319 319 319 319 319 319 317 315 314 313 312 310 310 310 310 310 311 312 312 311 311 311 311 311 311 312 312 309 307 306 305 305 305 305 307 307 303 303 303 303 303 303 303 303 304 304 304 304 304 303 302 303 302 303 302 301 301 302
297 297 295 297 291 288 284 285 285 284 279 280 281 290 284 296 298 304 305 307 309 310 311 313 314 315 316 316 318 317 317 318 318 318 318 319 319 320 320 319 318 318 318 318 317 315 314 313 312 311 311 310 310 310 310 309 310 311 311 312 312 312 312 312 310 308 306 305 306 305 304 304 304 306 303 303 302 302 301 301 302 302 302 302 303 303 303 303 303 302 302 301 301 301 301 300 300
289 289 288 292 293 294 292 293 289 283 279 280 279 280 285 295 303 306 307 308 309 310 311 313 314 315 316 317 317 317 317 317 317 317 318 319 319 319 319 319 319 319 319 318 315 314 313 312 311 310 309 309 309 309 309 309 310 310 310 309 309 310 310 310 308 307 306 305 306 306 304 305 304 303 303 302 301 301 301 301 301 302 301 301 302 302 303 302 302 302 302 301 301 301 300 299 300
289 287 287 290 288 285 282 281 293 292 285 280 281 279 288 301 306 307 309 310 310 312 313 313 314 315 315 317 317 317 317 317 317 317 318 318 319 319 319 319 318 318 317 316 315 314 312 311 310 310 309 309 309 309 309 309 310 310 309 308 308 308 308 306 305 305 305 305 304 304 304 303 302 303 302 302 301 301 300 300 300 300 300 300 301 302 302 302 301 301 301 303 302 301 300 299 298
Wind_Speed
10 9 9 10 7 6 4 1 3 2 0 4 6 2 6 5 5 6 4 3 5 2 7 14 15 9 7 10 15 11 9 2 2 3 3 3 9 14 18 17 14 14 14 10 8 8 10 12 15 17 16 18 17 16 16 16 15 15 15 14 14 14 14 14 14 14 14 14 14 14 14 14 14 14 13 12 12 12 11 12 12 12 12 12 12 12 11 11 11 11 11 11 11 11 10 10 8
8 8 9 8 7 2 2 2 1 3 3 4 8 6 5 5 9 3 3 8 3 3 9 14 16 17 19 17 16 14 12 8 5 6 5 12 14 12 15 16 16 16 12 9 8 8 8 10 15 17 18 18 17 17 16 16 15 15 15 15 14 14 14 14 15 15 15 14 14 15 14 14 14 14 13 12 11 11 10 10 11 11 12 12 11 10 10 10 11 11 11 10 11 10 10 9 7
7 7 10 8 4 3 3 1 0 1 3 6 8 8 5 7 4 0 4 5 6 6 11 13 12 10 13 8 9 7 2 6 11 9 8 14 15 9 14 14 14 15 15 9 8 7 7 9 14 15 18 17 17 17 16 16 16 15 15 14 14 14 14 14 15 16 15 14 14 14 14 14 14 14 13 13 12 11 11 10 11 11 11 11 10 9 9 9 10 10 10 10 9 9 9 7 6
5 2 3 4 5 4 1 2 1 1 1 5 8 7 4 9 8 3 4 7 5 8 10 6 8 2 15 14 11 14 10 6 6 10 8 7 9 13 13 15 15 12 11 10 9 8 6 11 13 15 17 17 17 17 16 16 16 16 15 15 15 14 14 15 15 15 15 15 14 14 14 13 13 13 13 12 11 10 9 9 10 10 10 9 9 9 8 8 9 9 9 8 9 9 8 7 5
5 6 4 1 2 3 2 1 2 1 4 2 6 11 12 8 8 5 4 3 4 4 12 9 7 5 10 10 4 3 5 9 8 4 7 8 14 13 14 15 13 13 11 11 9 8 7 14 12 14 16 18 17 17 16 17 16 16 15 15 15 14 14 15 15 15 15 15 14 13 13 13 13 12 11 11 10 10 10 10 9 9 9 10 9 8 7 7 8 9 9 8 7 7 6 6 5
8 6 4 3 1 1 1 2 3 5 8 4 5 9 15 14 15 12 14 0 3 3 7 12 11 6 6 6 2 6 12 7 7 4 11 11 16 16 16 13 13 12 12 10 9 8 8 13 12 13 15 17 17 17 17 16 16 16 15 15 16 16 15 14 14 14 14 14 13 12 12 11 11 11 11 10 10 9 8 8 8 8 8 8 7 7 6 6 8 8 8 9 7 6 6 4 4
4 6 2 2 2 1 3 3 6 5 7 5 5 6 10 11 11 17 2 1 2 2 11 12 18 15 11 4 8 4 10 13 7 7 10 15 16 15 15 13 13 13 12 10 9 9 11 12 12 13 14 16 17 17 17 16 16 16 16 16 15 15 14 14 13 14 14 13 13 12 11 11 11 11 10 10 9 8 8 7 7 6 6 6 6 6 5 6 8 9 9 8 8 6 4 4 3
3 0 2 2 3 0 1 4 6 3 5 6 7 10 12 12 9 15 2 2 1 0 12 12 9 15 8 3 6 3 9 6 11 13 19 15 14 14 13 14 14 13 12 10 9 8 14 12 13 13 13 14 16 16 16 16 16 16 16 15 15 14 14 14 14 13 12 13 13 12 11 11 11 11 10 9 9 8 7 7 6 6 6 6 6 5 5 6 8 8 8 8 7 7 5 3 3
2 2 2 2 1 1 3 6 7 5 8 11 13 13 13 12 10 13 13 5 1 2 15 13 14 14 4 12 6 6 8 13 13 17 16 15 13 14 12 13 14 13 12 11 10 8 9 12 12 12 14 14 16 16 15 16 15 16 15 15 14 12 13 13 13 13 12 12 12 12 12 11 11 10 10 9 9 8 7 6 6 6 5 5 5 5 5 6 8 8 8 8 8 7 6 4 2
2 2 2 2 2 4 4 6 4 5 5 8 10 13 12 10 11 13 15 11 2 3 13 9 12 15 12 13 9 4 7 14 15 13 15 15 16 15 14 14 14 15 12 11 10 9 8 15 12 12 12 14 15 15 14 13 14 15 15 13 13 12 13 13 12 12 12 12 12 12 12 11 11 10 9 9 8 7 6 6 5 5 5 5 4 4 5 6 7 8 7 7 7 6 6 4 2
2 2 2 1 3 5 5 7 7 7 10 9 13 15 16 16 8 2 2 1 1 3 10 19 14 15 11 7 3 4 11 14 15 15 12 15 17 16 13 13 14 14 14 12 11 10 9 10 16 12 12 13 12 12 12 12 13 13 12 12 12 14 14 13 12 13 12 12 12 12 12 11 10 10 9 9 8 7 6 5 5 5 4 4 4 4 4 5 7 7 7 6 6 5 4 3 3
2 2 2 3 6 5 5 5 7 7 8 7 10 11 7 10 3 2 2 2 2 2 9 10 7 16 11 8 4 8 10 11 12 12 11 11 14 15 14 11 13 12 13 12 12 9 9 9 9 13 12 12 12 11 11 13 13 13 12 12 12 12 13 12 12 12 12 12 12 11 11 10 10 9 8 8 7 7 6 5 5 5 4 3 3 3 3 5 6 7 7 6 5 4 4 2 2
4 2 3 3 3 4 5 6 7 9 7 8 9 10 4 7 2 0 3 1 0 4 3 14 19 8 6 6 5 8 11 10 12 12 11 13 15 13 12 12 13 13 11 12 12 11 10 9 8 8 10 14 11 11 13 14 14 12 12 12 11 12 12 12 11 11 11 11 11 11 11 10 9 8 8 7 7 6 5 5 5 5 4 3 2 2 3 4 5 6 6 6 5 4 2 2 2
5 4 1 4 3 4 5 5 6 10 8 7 10 8 5 2 0 2 3 2 5 3 7 20 11 16 10 9 6 7 8 12 13 12 10 15 13 13 13 12 12 11 11 11 11 10 10 9 8 9 9 8 7 10 14 15 14 13 11 10 11 11 11 11 11 10 10 10 11 11 11 10 9 8 7 7 7 6 5 5 4 4 3 3 2 2 3 4 4 5 6 6 5 4 2 1 3
6 2 2 2 4 4 3 7 4 5 7 6 9 3 3 2 3 1 3 4 8 12 9 4 14 13 9 14 6 10 11 12 14 12 13 15 15 14 13 12 12 11 11 10 10 10 10 9 9 8 7 7 6 5 5 11 15 12 11 11 11 10 10 11 10 9 9 9 10 9 9 8 8 8 7 6 6 5 5 4 3 3 2 2 1 1 2 2 3 3 4 5 5 5 2 2 3
4 3 3 4 6 5 3 6 4 7 7 8 14 11 5 3 1 1 2 3 8 8 11 4 4 1 14 14 18 16 15 14 12 13 15 16 14 13 13 12 11 11 9 10 10 9 9 9 8 7 7 7 5 5 6 6 12 13 11 11 11 10 10 9 9 9 9 8 8 8 7 5 5 4 7 4 6 6 5 4 3 1 1 2 1 0 1 2 2 3 2 3 4 3 2 2 3
2 3 5 4 7 6 3 7 5 8 6 9 13 6 3 2 4 1 2 14 13 3 4 2 2 9 20 8 17 18 16 11 13 14 15 13 12 10 9 9 9 9 8 10 8 9 9 9 9 6 7 7 6 6 5 6 9 12 10 11 10 9 8 8 8 8 7 8 7 7 6 2 1 1 3 2 5 2 3 5 3 2 1 1 2 2 2 3 2 4 3 1 1 1 2 3 4
3 6 6 9 5 8 5 9 5 4 8 6 15 4 1 4 0 1 5 14 13 9 8 5 10 7 9 13 19 18 16 15 15 16 13 12 11 10 10 10 10 10 10 9 9 9 9 9 9 9 8 8 7 6 5 5 6 8 5 4 4 5 6 7 5 3 5 2 6 4 3 2 3 2 3 5 2 2 3 4 3 2 2 2 2 4 4 4 5 4 5 4 2 1 2 1 3
7 4 6 12 6 7 5 7 11 10 9 14 9 2 1 2 4 1 3 9 12 12 7 13 13 13 14 15 17 17 17 15 14 14 15 14 12 14 11 10 10 12 11 9 10 11 10 9 8 9 8 9 8 6 5 5 6 4 5 4 4 5 5 5 3 4 2 3 3 3 3 3 3 3 3 4 3 4 3 4 3 3 3 3 4 5 6 6 6 7 7 6 2 3 2 2 4
8 6 9 9 4 6 11 12 13 13 11 13 2 4 5 1 4 1 1 9 14 15 13 9 15 14 14 14 14 16 17 16 14 14 15 14 14 14 13 12 11 12 11 10 11 10 11 9 10 8 10 9 7 6 6 6 5 5 4 4 5 4 4 3 3 3 3 3 3 3 5 3 2 4 6 7 4 2 1 2 3 3 4 4 6 4 6 7 8 8 8 8 3 2 4 4 4
4 9 8 4 8 11 11 12 15 17 19 7 2 2 2 4 2 2 3 2 8 8 16 19 17 18 17 15 16 15 17 16 14 14 14 14 14 12 12 12 12 9 9 9 8 9 9 8 7 10 10 8 9 8 7 6 6 6 6 5 6 5 5 3 3 3 3 4 3 4 2 2 4 4 5 5 4 3 2 1 1 2 2 3 5 3 3 4 4 5 5 5 3 3 4 5 5
3 10 11 8 6 7 11 18 19 16 10 12 2 4 2 2 2 3 5 8 6 11 9 17 19 20 21 18 15 15 17 16 14 14 15 15 16 12 10 10 4 6 9 9 8 5 11 7 5 6 10 8 8 8 8 7 8 6 6 7 6 6 6 5 4 3 3 5 3 4 5 4 4 4 4 4 3 2 1 2 3 3 3 4 3 4 4 4 4 4 4 5 5 4 4 5 5
10 6 9 13 13 11 11 13 8 6 1 2 1 1 1 1 3 1 5 2 9 14 10 15 18 16 15 15 17 15 17 16 14 14 15 14 14 6 6 6 5 5 5 7 6 7 10 11 9 10 9 7 9 8 7 6 6 7 7 6 6 6 5 4 4 5 4 5 4 3 5 4 4 3 3 3 3 2 3 2 1 2 4 5 3 3 4 4 5 5 5 5 5 4 5 5 5
10 9 7 12 12 15 17 15 14 3 5 0 1 2 0 1 4 1 4 1 13 12 14 15 15 14 15 14 13 16 17 17 14 12 10 7 10 12 10 9 5 3 3 6 6 7 7 10 10 7 8 7 7 8 6 6 6 6 7 6 6 5 5 5 5 3 5 6 4 4 3 4 3 1 3 3 2 2 2 3 3 3 4 4 4 3 5 5 5 5 4 5 3 3 5 5 5
13 12 9 8 12 14 16 16 16 5 2 1 4 6 5 3 1 4 4 8 15 14 14 15 13 13 11 11 11 11 12 10 7 7 12 11 13 13 12 8 8 8 6 6 5 7 5 7 8 5 4 8 7 7 6 6 6 6 4 3 2 3 5 5 4 4 5 5 4 4 2 1 3 2 1 0 0 2 3 2 3 3 4 4 3 5 5 4 3 2 1 1 0 2 3 3 6
13 12 10 9 10 10 12 15 14 8 3 1 1 3 6 5 6 4 7 8 15 15 13 13 12 10 10 9 5 6 8 15 18 15 16 15 14 16 13 12 10 6 5 4 5 7 7 6 7 6 6 8 6 5 6 6 6 5 4 4 3 5 5 5 5 5 3 5 4 3 3 3 3 2 1 2 3 3 2 2 1 2 3 2 3 4 2 3 3 4 5 5 5 5 6 5 5
9 13 11 12 12 14 12 8 14 8 5 7 3 2 3 3 3 2 2 7 14 15 14 12 10 12 16 15 15 15 13 14 17 16 18 14 13 12 9 12 10 8 9 10 11 8 7 7 5 7 5 7 8 6 5 6 6 6 5 5 5 6 6 6 5 6 7 5 5 3 3 3 2 1 1 2 2 3 3 3 3 2 3 3 3 4 4 4 5 5 3 3 3 4 4 4 4
11 12 15 12 13 13 14 9 6 4 3 7 4 4 3 3 2 6 6 6 11 15 15 20 19 14 10 11 15 12 11 7 11 15 18 14 11 11 11 9 8 8 9 10 8 8 9 6 5 7 10 8 8 6 6 7 6 5 5 6 5 6 6 5 5 5 4 5 7 6 5 2 0 0 0 1 3 4 4 3 2 2 2 3 4 3 5 5 4 3 3 2 1 2 2 2 2
11 10 10 15 16 13 16 12 6 3 1 6 5 1 3 1 3 4 9 15 18 19 17 15 14 12 12 12 12 10 9 4 7 11 10 9 7 7 10 7 10 9 6 7 8 8 6 5 8 8 8 8 7 6 7 6 6 6 6 6 5 6 5 4 5 5 4 7 8 9 7 5 3 3 1 1 0 1 2 3 2 3 4 3 3 4 5 4 4 4 4 3 4 4 3 4 4
10 8 9 6 9 14 16 11 8 5 3 5 7 5 3 2 13 14 12 16 18 17 15 13 11 11 12 12 9 10 10 10 10 10 10 9 8 8 10 9 7 8 7 5 7 8 5 5 7 6 7 8 7 6 6 6 6 6 5 5 5 5 4 5 5 5 7 8 5 5 4 8 7 4 4 5 3 2 4 6 5 4 5 3 3 4 4 3 3 4 4 4 4 4 5 4 4
10 6 5 6 6 5 3 5 5 7 5 7 9 6 1 6 6 8 9 14 18 15 13 12 12 11 10 10 10 11 9 10 10 10 12 11 10 8 7 4 5 8 8 7 9 6 6 8 7 6 6 6 6 6 6 6 5 5 5 5 5 4 4 5 4 6 7 5 5 2 4 3 5 6 7 6 6 6 5 2 5 2 2 3 4 2 2 2 4 4 4 4 3 3 3 4 3
4 6 10 3 8 4 5 6 6 9 4 10 6 5 4 3 4 2 1 10 17 14 11 11 12 12 11 10 10 10 10 9 9 8 10 10 7 7 10 12 10 10 10 9 8 7 8 9 8 8 6 6 4 5 6 5 4 4 5 5 5 4 5 5 4 5 5 4 3 2 2 3 1 2 3 6 3 7 7 3 1 0 1 2 3 3 3 3 2 2 1 1 5 5 4 4 3
5 9 4 5 9 4 4 8 8 11 4 8 11 3 6 2 2 1 5 9 9 13 10 11 13 13 11 10 10 12 11 8 9 10 10 7 5 9 12 12 12 11 11 10 9 7 10 11 9 8 7 5 4 5 6 4 4 5 5 5 5 5 6 5 5 5 5 4 4 5 4 4 3 2 2 5 5 3 4 3 5 2 2 4 4 3 4 4 3 3 2 1 1 3 5 6 6
7 5 5 4 5 5 6 4 9 12 13 6 12 6 1 5 5 2 1 9 11 11 11 12 11 11 10 9 10 10 10 9 8 12 15 10 6 9 10 13 15 15 12 11 9 9 9 9 9 8 7 6 5 5 5 5 4 4 5 5 4 6 5 5 4 5 6 4 4 4 3 2 1 6 8 4 3 6 5 4 4 5 4 5 5 5 4 4 4 4 4 3 4 3 5 5 6
8 4 6 4 4 7 8 9 9 9 17 12 9 6 7 9 5 3 2 1 9 10 10 12 13 12 10 10 10 10 10 10 11 9 12 10 8 6 8 7 7 8 8 9 9 9 9 9 8 8 7 7 6 5 5 5 5 5 4 4 6 5 5 4 3 5 5 3 3 3 5 4 3 7 7 6 5 5 5 6 6 6 5 5 5 5 4 4 4 5 4 4 4 4 3 4 5
7 8 5 5 6 8 9 12 11 10 13 14 8 8 11 8 7 7 3 4 11 8 7 9 10 11 10 10 9 9 9 9 6 6 8 7 4 5 6 6 6 8 8 8 8 7 8 7 7 7 6 6 6 6 5 5 5 4 5 4 5 4 4 4 4 4 3 4 4 4 5 7 9 9 8 6 6 4 4 5 6 5 5 4 5 5 5 6 6 6 6 4 6 4 4 5 6
7 8 6 9 10 7 8 10 11 11 10 15 6 12 9 8 7 8 5 7 10 10 9 9 9 10 10 9 8 6 6 6 4 5 6 6 5 4 5 7 8 9 8 8 8 6 6 7 8 8 6 5 6 6 5 6 5 5 4 4 6 4 5 6 5 3 3 6 8 8 9 9 10 9 7 6 7 6 5 5 5 6 6 6 5 5 4 5 5 4 4 4 5 5 5 6 9
9 9 10 9 11 10 11 11 13 12 8 7 13 13 9 5 5 5 5 9 11 12 11 10 10 10 9 10 10 7 6 5 7 6 6 7 5 6 6 6 9 10 8 8 8 6 5 6 7 8 6 4 4 4 5 4 3 4 6 4 5 5 5 5 6 6 7 7 10 10 10 10 9 7 6 6 6 6 6 6 6 6 6 5 5 6 6 5 6 6 4 5 5 5 4 7 8
13 8 8 8 11 11 13 17 12 12 10 7 16 13 8 7 6 5 5 5 6 6 11 13 13 12 10 9 9 9 7 6 7 7 8 7 6 7 6 6 7 8 8 7 6 6 6 6 6 6 6 5 4 4 4 4 3 3 4 4 5 5 3 5 7 7 8 10 10 10 10 8 7 7 6 5 5 5 5 5 4 5 5 4 5 6 6 6 5 7 7 6 5 4 3 6 8
10 9 4 7 8 10 9 15 10 14 9 11 12 13 6 4 4 4 4 7 6 5 8 9 8 13 13 11 10 10 8 6 7 8 9 8 7 6 6 6 7 7 7 7 7 7 6 5 5 6 6 5 5 4 4 4 5 4 3 6 4 6 7 8 9 9 10 11 11 10 10 8 8 7 7 6 5 5 5 5 4 5 6 5 5 6 6 7 7 8 8 8 5 5 5 5 7
12 10 8 7 7 11 11 10 4 8 14 20 16 11 4 2 4 4 2 9 10 7 10 9 6 8 12 11 8 8 11 9 7 7 7 8 7 7 6 6 7 7 7 7 7 6 5 6 6 5 5 5 4 5 6 6 6 5 4 2 3 7 7 7 8 8 8 9 9 9 8 7 7 7 6 6 6 5 5 6 5 5 6 6 6 6 6 6 7 7 8 6 7 3 5 4 6
9 12 12 10 10 8 13 11 8 10 4 7 17 5 1 4 5 7 6 8 8 8 11 9 10 13 14 12 10 8 8 11 12 9 8 8 7 7 7 8 7 7 6 6 5 5 5 6 4 3 4 4 4 4 4 5 5 7 6 6 6 6 7 6 7 8 8 7 7 6 7 6 6 6 6 6 6 5 5 6 6 6 6 6 6 6 6 6 8 8 7 5 6 6 3 6 5
8 10 10 14 17 13 9 13 8 6 11 10 8 11 2 3 8 9 7 10 11 8 10 9 10 10 11 10 7 6 7 6 7 8 6 8 8 8 8 7 7 7 6 6 6 5 5 5 4 4 3 3 3 3 3 4 6 5 6 5 6 7 9 6 7 8 8 7 7 8 6 7 7 7 5 5 5 4 5 6 6 5 5 5 5 6 7 7 7 7 7 7 6 7 7 6 6
10 10 8 13 15 14 16 5 3 9 4 10 6 8 8 6 8 10 10 11 12 11 10 10 10 11 13 12 12 7 8 9 10 11 9 7 7 7 9 8 7 7 7 8 7 6 6 5 5 4 3 3 3 3 3 3 6 5 6 6 7 8 8 8 8 8 7 7 8 6 5 6 6 5 5 5 5 5 5 6 6 6 6 6 6 7 7 7 7 7 7 6 6 6 5 5 4
8 9 12 12 11 15 13 7 3 3 10 13 8 8 6 5 6 11 12 12 11 12 12 11 13 13 13 14 16 15 13 12 10 10 10 9 8 8 8 8 8 9 8 8 7 7 6 6 6 4 4 4 5 4 4 3 4 6 7 7 8 7 8 8 7 7 8 8 8 4 6 6 5 6 6 5 5 6 6 5 6 6 6 6 6 6 6 7 7 6 7 7 6 6 5 4 4
11 8 10 13 10 9 9 3 4 3 11 9 9 7 4 2 9 11 9 9 13 13 13 12 14 15 13 12 12 10 12 11 10 9 9 9 9 9 9 9 9 8 8 8 9 8 7 5 6 5 4 2 2 2 3 3 6 6 7 8 9 8 7 7 7 8 8 7 7 6 6 6 5 5 6 6 6 7 6 5 6 6 6 6 6 6 6 7 6 5 5 5 5 6 5 5 6
5 13 11 13 9 5 3 3 3 1 4 7 12 11 9 3 8 14 12 11 15 12 10 9 12 12 12 11 13 9 13 12 11 11 10 11 9 10 9 9 8 9 9 10 8 7 6 5 6 6 4 5 5 6 7 7 5 5 6 6 8 9 8 8 8 8 8 7 6 5 5 6 5 5 6 6 6 6 6 5 5 6 6 6 7 6 7 7 6 6 6 6 5 5 5 6 7
8 8 11 4 6 3 3 3 1 3 4 6 14 11 12 5 6 8 14 13 17 19 20 18 16 16 13 12 12 9 12 13 13 11 12 12 12 11 9 10 10 11 10 9 7 6 6 6 6 7 6 6 6 6 7 7 7 7 6 6 6 7 7 7 8 9 8 8 6 5 6 6 6 5 5 6 6 6 5 6 5 6 6 7 8 7 6 6 6 5 5 5 5 4 5 6 6
12 9 5 7 3 4 6 3 4 2 5 5 10 13 5 7 10 16 13 10 15 16 18 21 19 16 14 14 14 11 11 14 13 12 12 12 12 11 12 10 11 11 10 9 7 7 6 6 7 9 7 6 6 6 7 7 7 7 7 8 8 8 9 9 9 9 7 6 6 6 6 6 5 6 5 6 5 5 5 6 6 7 7 6 7 7 6 6 5 4 4 5 6 6 6 6 7
12 13 6 6 3 6 5 3 2 1 2 1 4 6 4 4 2 16 17 15 18 17 16 18 21 19 17 15 14 11 10 13 12 13 12 12 12 11 11 11 10 10 10 8 9 8 6 6 6 8 7 6 6 7 7 8 8 8 8 9 9 9 9 9 8 9 7 7 7 6 6 6 5 4 4 5 4 5 5 5 5 6 6 6 6 6 5 5 4 5 4 5 7 6 7 7 7
11 9 6 5 4 3 4 2 4 4 3 2 2 3 2 4 4 17 17 13 14 14 15 14 15 16 15 13 13 10 11 12 13 13 12 13 12 12 11 11 10 10 10 9 9 8 8 7 6 7 7 6 7 8 8 9 8 9 9 9 9 9 9 8 7 7 7 9 7 7 6 6 5 4 5 4 4 5 5 6 6 7 6 6 5 5 5 4 5 5 5 5 6 6 7 7 7
6 5 1 3 7 5 3 4 2 2 2 1 1 2 3 2 0 8 11 13 13 15 16 16 16 16 16 15 15 13 13 13 13 13 12 14 12 12 11 10 10 10 9 10 10 9 8 7 6 7 7 7 8 8 8 8 8 8 9 10 10 10 8 7 7 7 8 7 7 7 6 5 5 4 4 4 4 5 6 6 7 7 6 6 6 5 5 5 4 6 6 6 7 5 6 8 7
5 5 8 6 4 5 1 0 2 3 3 3 2 3 5 8 11 6 15 15 15 16 16 16 16 17 18 16 15 15 14 13 13 14 12 13 12 11 11 11 10 9 11 10 10 9 9 8 8 8 8 7 8 8 8 8 8 9 8 9 9 9 9 8 8 8 7 6 6 5 5 3 4 4 4 4 5 5 6 6 6 7 6 5 6 6 6 5 5 5 6 7 6 5 6 6 6
5 8 5 2 0 4 6 4 0 2 3 3 5 6 4 5 1 3 10 14 14 16 17 15 15 16 16 14 15 15 15 14 13 13 15 13 13 12 12 10 10 11 12 11 11 9 9 9 9 9 9 9 7 8 8 7 8 8 8 9 9 9 8 7 7 6 5 7 5 4 3 4 4 4 4 4 5 6 6 6 6 6 5 5 5 5 6 6 5 6 6 6 6 5 6 5 6
6 8 6 9 5 8 2 4 4 5 3 1 0 10 6 7 9 8 12 16 14 15 15 15 16 15 16 15 16 15 15 14 13 14 14 13 11 13 11 11 11 11 11 11 11 10 10 8 9 9 9 8 7 6 6 6 6 6 6 8 8 7 6 6 4 5 6 6 5 4 4 4 4 4 5 5 6 6 6 5 5 5 5 6 5 5 4 6 6 6 6 6 6 6 6 6 6
8 4 9 6 2 1 3 4 3 7 2 2 3 8 3 5 12 19 16 18 18 17 17 18 18 17 16 16 17 17 16 15 14 14 14 14 12 13 12 13 12 11 11 11 11 10 11 10 10 9 8 7 7 7 6 6 5 6 7 7 7 7 6 5 5 7 6 6 5 5 5 5 5 6 6 6 6 6 6 6 5 5 6 6 5 5 5 5 6 6 6 6 5 5 7 7 7
7 3 4 7 3 3 4 1 5 5 3 6 2 1 3 5 12 21 20 21 19 21 20 17 17 17 16 18 18 17 17 16 16 15 15 16 14 12 12 12 11 11 10 10 11 11 10 9 10 10 10 8 7 7 6 5 5 6 7 7 6 7 8 8 8 6 6 5 4 4 4 4 5 5 5 7 7 7 7 6 7 6 6 5 5 6 5 5 5 5 5 5 5 6 7 6 6
5 6 3 7 8 5 4 4 1 2 5 3 4 5 3 5 6 18 23 21 20 19 20 18 19 19 16 17 17 17 16 15 15 14 15 15 14 14 11 10 11 11 10 11 11 11 11 10 9 9 9 8 8 7 6 5 5 6 7 7 6 6 7 7 8 7 6 6 5 5 5 6 6 6 6 7 7 6 7 7 7 7 7 7 7 7 5 5 5 5 4 4 6 6 6 5 4
Wind_Direction
320 319 317 315 306 278 357 39 22 299 277 277 273 302 267 312 316 327 60 91 73 25 66 76 82 72 99 120 112 89 32 90 294 155 217 122 110 107 116 122 122 123 123 130 132 133 136 136 135 133 131 131 128 126 123 120 118 115 112 111 111 108 109 107 104 101 100 95 92 90 87 87 88 88 88 88 93 99 102 105 106 104 102 100 97 94 90 85 82 80 81 80 79 80 81 83 85
313 326 317 314 303 16 331 96 124 328 4 339 276 277 281 335 352 28 63 66 96 87 71 96 91 103 109 119 127 98 50 49 66 112 89 110 111 112 120 125 129 127 126 129 132 133 137 138 135 133 131 130 128 126 125 121 119 117 114 112 111 110 109 109 105 103 100 98 95 91 90 91 92 91 87 84 88 95 95 101 102 103 99 100 97 95 89 84 81 78 76 79 81 79 79 82 80
318 341 328 339 337 111 255 71 347 291 322 303 285 273 312 343 333 92 61 73 92 94 96 80 86 94 99 101 55 82 127 92 95 97 100 125 116 131 129 125 125 127 128 133 133 135 135 137 138 134 132 130 128 126 125 123 121 119 117 114 113 113 110 107 106 104 102 100 97 95 94 94 95 94 93 93 95 95 101 102 101 100 99 97 99 94 86 79 77 76 74 74 75 80 80 77 67
305 271 272 9 330 351 49 9 101 165 268 232 286 297 329 313 315 203 147 127 140 113 110 89 65 309 105 80 99 92 110 111 108 124 130 138 126 133 129 127 126 125 127 133 132 132 134 138 138 136 134 132 130 128 126 125 123 121 119 116 114 113 110 108 108 107 106 102 98 97 96 93 90 94 98 95 95 95 97 101 102 103 104 99 92 85 81 77 72 70 68 71 74 77 83 83 70
311 281 176 26 8 350 37 272 260 74 280 256 296 295 298 300 290 298 105 182 136 139 109 105 95 34 72 102 118 100 127 116 121 117 106 99 120 127 129 129 127 128 128 130 130 128 135 140 139 136 134 132 130 129 128 127 125 124 121 118 117 115 114 112 110 108 105 103 101 99 98 97 97 96 96 96 92 97 89 84 89 92 88 83 81 80 74 69 63 63 64 64 71 80 82 83 74
291 295 216 151 182 194 39 353 306 277 233 252 256 272 286 285 294 293 293 287 74 131 116 127 135 153 62 58 49 113 136 135 139 93 119 124 127 134 135 132 127 124 126 123 128 133 141 141 136 135 132 130 131 130 129 129 128 125 122 121 119 116 114 112 110 108 107 104 102 100 97 97 98 100 101 101 103 94 94 99 106 110 106 96 93 90 81 70 65 59 59 64 68 73 77 66 56
308 358 339 91 297 61 193 200 247 242 261 229 241 257 262 280 270 288 312 357 3 88 92 103 112 100 86 100 56 41 103 127 135 133 124 131 137 141 139 128 119 116 117 123 127 135 138 137 135 134 133 132 132 131 131 130 129 127 124 122 119 116 114 112 111 110 108 107 104 101 100 99 100 99 99 102 104 105 101 95 88 75 91 103 96 85 73 66 59 55 54 61 69 75 75 76 50
253 82 292 59 301 148 259 229 243 253 278 263 277 274 270 270 294 267 319 159 296 92 110 121 105 94 96 91 112 358 110 124 125 122 125 138 143 145 127 119 117 116 117 122 126 130 138 132 134 135 134 133 132 132 132 132 130 127 126 123 120 117 115 112 111 111 112 111 107 105 104 101 99 100 100 100 101 101 102 106 102 83 87 88 87 84 70 62 56 53 51 59 68 79 89 81 70
298 155 290 346 317 305 300 270 260 253 268 277 273 263 264 267 259 276 276 160 206 107 115 117 112 96 144 94 86 121 95 114 124 127 134 141 138 118 122 123 122 124 123 124 125 125 128 134 135 135 135 135 134 134 134 134 131 130 126 123 118 116 115 113 113 113 112 112 111 109 106 103 101 99 100 100 100 100 96 93 95 95 94 97 94 89 74 59 55 52 52 54 66 74 85 91 63
268 157 274 190 169 273 272 285 294 252 248 256 258 266 266 261 256 261 263 274 193 90 116 109 95 110 120 101 117 122 125 126 128 131 137 141 122 127 121 124 124 123 122 125 127 126 133 139 136 135 136 136 136 135 135 132 131 130 125 119 119 117 115 112 112 114 115 114 113 110 107 104 103 101 99 95 94 96 99 99 101 101 94 92 90 77 61 52 50 49 47 53 60 68 78 78 71
302 211 190 288 277 266 262 266 267 288 279 281 284 281 286 282 293 187 104 124 12 99 104 102 88 111 108 96 65 119 125 131 136 141 152 132 132 126 121 120 122 124 127 130 129 133 136 135 137 135 133 134 135 131 131 129 127 123 119 119 119 118 116 114 115 116 118 118 116 113 109 108 106 104 102 102 99 101 105 102 102 106 103 91 78 63 53 48 46 46 45 44 57 67 70 74 35
302 269 169 204 222 202 230 235 256 257 266 267 274 285 279 285 192 113 87 7 7 350 135 125 149 119 97 124 135 137 136 138 141 143 146 124 116 118 118 120 123 124 128 132 131 133 131 137 135 138 131 131 128 130 126 124 127 124 123 123 120 116 115 116 118 119 120 120 116 113 112 111 111 110 107 108 107 103 104 112 108 102 106 96 77 60 47 39 44 41 39 41 47 57 78 44 29
199 231 246 243 215 203 239 251 251 261 269 262 264 269 313 338 79 161 178 149 146 236 98 126 140 121 124 130 147 135 148 154 144 144 138 115 119 117 118 122 124 129 128 129 132 134 133 132 133 130 128 129 126 127 130 127 128 124 124 122 118 118 118 118 119 119 119 120 120 116 117 123 126 127 124 119 120 113 106 107 113 111 105 99 76 66 42 40 36 38 35 35 38 44 50 46 352
198 196 166 251 245 249 249 264 280 285 283 284 278 288 276 227 322 110 64 21 15 33 135 132 117 104 95 107 136 150 164 159 146 141 131 118 118 121 122 124 124 123 124 129 132 135 135 129 125 128 131 123 127 133 131 130 130 126 125 123 121 121 122 119 119 124 125 128 129 134 139 142 141 137 133 125 120 120 113 105 104 116 117 106 108 57 42 27 31 30 31 28 35 33 14 345 336
220 213 228 207 246 252 228 251 239 270 272 282 281 311 333 310 174 98 148 86 104 122 111 91 143 109 196 148 171 176 171 157 147 146 124 120 121 123 124 126 122 122 129 132 131 138 133 130 124 124 122 121 118 117 128 135 133 129 128 125 124 125 126 126 126 129 133 134 140 143 143 144 143 142 137 133 129 129 123 105 101 109 123 136 111 59 20 3 12 16 22 32 21 18 3 340 315
197 206 215 230 235 225 230 255 251 269 272 270 280 289 232 271 272 134 44 101 90 109 136 162 227 214 164 171 164 161 162 154 150 129 121 123 120 121 127 127 128 132 133 135 143 137 134 128 131 129 126 125 120 118 124 131 136 133 130 128 130 135 135 133 136 141 144 147 146 145 149 148 147 144 144 141 140 137 131 124 113 95 127 153 169 247 273 342 315 334 2 15 23 22 8 305 297
226 197 242 226 248 217 188 224 218 237 259 261 260 250 186 226 226 117 162 86 101 65 71 48 48 113 158 163 141 145 151 144 131 127 122 124 125 130 130 132 136 137 133 148 145 136 134 135 139 130 132 131 128 121 124 131 142 137 136 138 142 141 139 143 152 159 156 154 152 154 150 132 138 172 154 153 163 164 182 147 145 161 225 193 211 218 261 257 295 282 301 317 9 20 338 270 259
223 213 209 239 212 221 207 238 226 232 247 259 261 219 253 247 302 190 95 80 83 73 62 46 52 72 124 129 136 143 143 136 137 136 134 130 137 137 142 147 149 146 149 155 142 140 134 145 145 142 144 137 129 125 127 137 141 139 137 139 134 141 151 158 167 173 169 184 159 158 162 182 185 207 205 174 181 167 152 158 170 186 214 255 271 250 240 252 260 269 273 267 236 235 258 245 254
210 216 194 230 204 232 234 241 238 246 244 251 271 153 40 359 334 111 78 116 108 89 50 88 86 91 106 127 136 137 140 140 142 140 141 143 146 147 151 158 154 148 158 151 146 141 144 153 147 150 143 136 135 130 133 138 138 137 139 139 149 158 176 176 188 189 179 189 191 158 192 207 203 184 222 184 176 161 166 171 185 214 232 248 258 273 276 266 261 263 266 269 254 244 241 236 247
224 215 225 228 210 234 232 240 256 254 262 250 185 157 147 353 337 353 131 154 125 130 116 99 119 128 131 136 139 139 139 143 145 147 149 150 151 153 157 160 152 157 151 148 142 143 152 151 150 150 136 143 137 133 143 150 141 139 157 163 163 186 206 183 201 226 190 197 194 168 198 205 165 162 215 196 150 110 133 184 215 243 258 259 259 264 273 272 267 268 267 264 257 238 221 224 229
195 223 230 208 204 235 243 256 252 247 242 250 219 46 350 154 224 296 256 118 151 148 148 149 149 145 145 149 146 142 143 147 154 152 153 155 156 159 158 156 155 148 139 126 121 144 136 128 137 137 141 151 143 145 157 165 151 158 173 175 173 189 205 188 202 237 220 205 158 159 116 77 45 32 27 44 85 120 129 170 245 254 263 265 255 257 266 267 265 269 277 277 260 257 248 225 219
243 225 228 234 244 235 228 234 241 256 285 264 200 156 197 310 290 243 232 212 161 167 198 146 145 148 151 152 150 147 151 155 158 160 160 161 161 160 151 134 84 114 120 120 120 119 113 92 101 124 160 162 148 157 165 169 158 164 174 181 178 188 193 198 199 214 232 117 117 89 69 52 41 37 24 17 39 28 133 207 220 235 246 251 235 239 256 256 253 252 269 271 264 258 264 275 250
233 244 221 222 233 249 258 255 256 273 209 43 58 161 359 319 307 299 82 149 163 167 144 140 146 148 143 144 147 151 158 162 165 168 164 161 156 128 61 45 57 19 83 99 114 138 131 138 150 183 170 152 157 162 164 165 157 170 174 178 176 193 182 187 202 202 149 91 88 78 79 57 51 35 24 21 14 28 314 299 281 243 247 249 259 225 247 249 231 235 243 253 254 263 275 275 274
214 235 216 225 223 231 249 261 267 277 164 76 266 3 316 260 269 36 58 100 131 118 127 132 132 137 145 147 158 157 164 167 169 169 154 123 77 72 63 66 43 46 77 123 134 128 116 138 164 191 165 149 166 170 166 149 151 162 178 175 163 189 162 158 142 137 91 101 99 75 75 71 81 34 33 28 338 352 317 303 285 270 275 276 282 269 253 258 256 245 245 255 283 284 272 278 263
221 225 224 230 220 228 233 245 252 231 272 154 22 324 298 317 166 49 75 99 103 103 116 127 133 137 144 151 158 161 164 160 147 45 39 42 69 78 87 88 48 23 36 75 76 46 102 157 156 180 157 151 162 163 138 145 145 155 148 116 149 116 88 83 77 69 75 79 82 94 96 78 85 72 34 347 278 329 301 278 287 284 276 270 262 252 249 236 214 157 131 126 198 280 284 299 344
220 218 218 232 251 243 228 234 242 169 166 83 30 298 310 303 63 57 122 100 105 113 119 124 123 133 139 134 65 23 37 30 42 45 52 55 60 64 62 82 95 91 46 13 74 147 172 175 163 171 126 133 136 106 115 120 132 114 88 91 86 65 57 62 69 58 55 56 49 74 88 66 33 60 349 1 3 337 335 310 311 297 280 278 268 253 300 349 26 39 31 23 18 3 348 357 358
197 218 216 220 232 251 257 235 239 179 154 139 186 270 277 276 119 91 323 123 116 121 121 113 83 50 36 46 57 69 64 61 64 74 71 68 80 98 119 115 123 134 145 155 160 181 159 150 145 111 91 61 53 57 78 79 75 80 79 68 58 65 59 59 56 44 26 20 37 18 59 68 75 326 30 5 24 317 320 342 297 258 289 299 338 4 26 37 40 52 44 28 12 16 343 340 332
247 212 212 223 235 242 256 254 273 136 161 139 150 220 230 262 174 167 198 155 119 106 79 68 73 86 88 69 67 60 56 72 99 88 104 123 136 145 134 121 136 131 144 164 163 140 139 128 92 69 71 72 68 63 72 74 74 72 75 68 59 60 63 57 58 62 58 19 2 5 0 59 79 320 75 60 358 334 338 321 274 299 296 335 28 20 22 34 48 51 27 3 352 30 339 297 287
246 241 230 217 219 232 244 248 237 166 238 165 159 273 264 248 254 197 132 81 88 94 100 104 95 89 91 96 92 91 105 106 97 99 108 114 122 113 120 128 146 151 175 138 128 118 97 99 94 68 76 73 69 65 77 84 81 73 67 70 58 61 70 71 57 54 60 60 39 21 356 347 31 342 319 102 149 264 312 291 303 11 18 36 23 22 21 35 28 12 11 358 357 9 355 344 341
248 245 242 236 223 226 232 243 238 168 164 156 120 230 247 306 44 30 78 104 94 87 94 102 106 101 97 93 104 111 117 105 95 119 121 117 122 112 123 152 171 140 129 101 86 89 108 93 74 70 65 69 65 61 64 69 69 73 79 78 69 68 61 54 68 60 60 73 81 87 10 340 343 321 340 336 35 341 3 4 333 7 15 15 26 17 12 31 29 20 0 22 355 4 350 336 340
231 239 228 215 217 247 222 227 188 210 149 181 145 202 256 75 53 47 114 113 110 115 123 120 113 104 96 96 97 98 97 112 125 129 125 127 131 132 135 151 131 111 109 101 103 117 108 88 88 81 72 64 67 76 71 70 66 82 87 82 78 80 74 74 65 68 61 76 108 69 106 47 321 351 360 1 350 10 360 324 299 339 358 353 26 345 3 28 41 26 14 1 342 340 324 308 320
223 209 229 221 205 195 227 235 212 191 173 186 164 194 157 150 49 185 80 127 124 127 119 115 116 112 107 105 105 105 118 120 114 115 122 126 128 133 124 118 115 117 118 124 129 131 106 87 93 98 85 74 56 72 80 79 89 89 91 94 91 84 81 72 67 78 92 91 106 115 120 153 137 173 158 170 194 209 190 199 206 17 351 3 354 344 42 35 23 27 338 29 358 332 329 315 293
232 203 207 225 193 196 196 238 224 194 203 184 196 170 141 126 226 169 132 93 102 110 106 110 108 116 119 118 118 121 126 123 125 128 117 121 144 130 125 125 133 139 136 137 139 125 101 103 108 108 105 106 80 70 85 77 78 77 81 81 81 80 82 82 77 75 82 78 79 64 53 49 25 54 64 31 291 30 25 26 4 13 7 15 0 16 52 24 22 9 337 335 11 312 323 318 320
233 203 202 197 185 162 215 267 257 197 192 219 193 171 163 130 163 146 30 123 121 113 117 117 120 120 122 122 120 124 129 134 149 157 145 150 178 155 138 150 151 146 143 137 131 120 113 114 119 121 124 117 104 101 108 101 88 87 78 88 92 87 82 78 80 78 73 76 90 95 77 78 351 32 33 347 6 40 43 29 17 17 15 17 21 28 33 22 17 12 355 339 333 316 317 320 321
199 190 194 224 226 189 192 188 240 208 190 203 189 128 141 149 144 128 117 42 111 127 131 131 125 122 127 127 134 137 142 153 169 162 142 149 180 148 123 121 110 99 109 122 119 116 116 125 130 129 125 126 122 120 114 105 99 86 84 90 85 81 82 88 87 79 84 93 91 84 74 58 68 66 48 26 31 35 38 31 28 19 19 19 26 28 22 16 16 8 5 341 338 323 313 327 333
207 190 171 194 200 222 216 207 221 204 186 195 181 156 152 169 153 124 138 134 117 117 113 109 113 123 126 134 139 144 150 152 144 131 128 140 153 124 113 115 109 113 121 122 117 120 122 121 116 114 122 133 133 129 126 116 108 115 110 93 73 81 93 97 90 84 93 95 87 84 77 63 50 51 44 29 24 28 39 36 31 18 14 15 30 34 24 21 20 11 1 2 353 345 11 6 352
218 203 193 198 216 240 239 233 218 195 181 190 175 142 145 170 151 139 148 124 119 126 120 125 128 132 135 130 130 125 120 134 108 99 97 126 137 105 106 119 115 111 115 122 122 125 131 130 126 127 146 145 140 134 128 133 131 122 105 114 114 109 97 95 92 97 71 80 73 69 65 56 51 49 44 33 25 20 24 29 33 21 13 16 21 29 31 30 22 19 2 3 11 6 9 4 3
234 207 201 198 203 231 238 241 226 190 166 176 118 128 141 119 125 139 140 133 145 144 138 134 135 130 133 132 125 115 104 88 109 113 111 129 136 116 125 126 126 122 126 126 131 135 134 133 126 130 138 139 135 137 140 145 163 152 138 149 136 124 110 99 98 86 81 71 64 57 54 51 49 47 44 34 31 28 25 26 32 21 16 16 25 19 15 25 20 22 24 19 5 21 17 11 7
241 224 197 200 206 209 233 243 241 174 154 122 137 122 147 143 128 138 149 141 153 157 146 145 139 134 132 128 120 114 115 117 124 124 130 139 142 137 134 127 121 123 129 130 133 139 137 124 122 132 140 138 140 141 141 140 122 130 135 145 133 114 100 106 97 92 83 72 60 54 50 47 45 45 37 40 37 28 28 31 32 26 25 21 34 25 18 23 18 25 29 33 5 7 13 19 16
240 234 226 215 195 184 221 241 243 174 161 142 120 110 99 109 94 136 179 129 138 142 132 129 133 137 135 136 136 132 123 126 129 138 143 151 148 145 134 131 127 128 131 131 141 136 127 127 136 142 142 136 133 136 125 122 133 124 118 126 128 114 120 99 84 75 68 63 55 50 43 43 42 40 33 29 29 21 21 21 14 25 21 20 38 36 20 17 17 28 28 29 22 23 12 9 21
240 230 228 232 229 193 205 231 185 116 82 118 104 79 81 137 133 159 162 131 132 131 116 118 121 113 115 115 121 135 136 137 130 136 143 152 150 151 144 133 131 136 140 144 140 139 136 140 146 146 132 123 127 127 129 134 123 113 102 85 102 105 89 88 81 67 67 70 67 52 48 44 44 43 33 27 25 27 26 29 29 24 28 35 43 41 29 24 36 34 31 32 32 26 18 8 20
246 240 229 237 245 237 206 222 116 117 138 148 127 75 260 202 169 159 140 122 129 134 121 127 114 120 123 121 126 142 169 153 155 157 158 151 146 142 138 139 139 139 144 136 122 123 128 134 129 110 107 114 123 127 130 127 128 125 130 132 118 93 85 79 84 87 76 71 75 73 56 48 43 42 36 33 30 30 31 33 33 35 40 41 41 38 34 38 38 38 26 29 23 17 38 36 18
231 236 226 237 248 260 250 217 125 145 156 216 155 132 204 173 179 177 155 146 143 138 136 134 120 119 114 122 143 148 178 157 139 135 145 143 147 142 137 140 139 139 124 108 109 113 112 106 101 101 109 105 97 113 128 124 113 110 111 109 106 109 102 85 86 88 92 87 82 73 65 50 46 46 38 37 30 30 38 37 38 40 45 45 39 42 46 43 43 39 29 27 24 29 35 52 31
228 238 225 234 243 252 258 291 185 172 165 192 190 122 134 185 206 177 163 148 152 149 150 140 132 130 128 146 142 166 180 170 161 153 152 144 142 140 138 129 126 122 115 114 121 119 113 109 108 109 105 107 112 126 128 121 119 120 113 105 106 105 104 109 101 97 95 93 81 78 80 67 53 44 43 35 35 32 40 41 36 37 43 39 40 47 52 48 50 40 36 35 39 43 44 52 39
222 232 230 242 235 240 251 245 233 185 131 187 211 130 96 180 183 160 162 154 163 165 155 147 134 138 152 161 166 172 168 166 159 151 150 146 140 132 126 118 118 117 120 125 127 123 123 130 129 131 136 144 151 156 151 163 131 124 120 116 105 106 113 115 113 109 100 92 88 69 65 66 55 40 40 41 37 35 39 45 38 39 44 43 46 52 52 51 55 52 40 37 41 40 37 39 44
213 234 239 245 242 243 247 241 262 183 158 197 210 165 134 156 146 155 173 172 172 170 162 152 140 158 171 171 171 169 157 150 152 146 139 130 130 126 120 123 124 128 128 125 126 129 133 133 131 130 124 122 149 149 153 129 118 115 113 116 117 117 114 108 103 97 93 90 87 73 69 74 63 47 40 39 41 38 40 40 41 44 46 48 49 52 54 46 43 48 42 42 42 47 27 31 41
176 226 243 245 237 245 273 236 194 81 243 212 191 172 151 142 190 167 164 200 181 155 153 149 149 164 178 172 169 176 155 148 149 149 136 130 130 125 136 131 126 124 126 132 134 135 137 125 123 112 110 98 86 83 80 79 85 93 110 115 117 118 117 115 106 97 97 93 92 87 80 80 66 57 49 41 42 42 40 40 43 45 47 47 46 50 52 49 42 43 38 36 44 52 38 37 35
225 206 225 228 261 263 269 284 132 173 251 239 183 182 162 149 211 205 198 183 163 159 167 166 160 172 174 164 170 172 156 149 148 146 139 137 132 134 135 131 131 128 130 131 136 130 122 121 113 101 88 86 82 76 74 71 69 69 70 78 96 113 113 108 108 110 107 106 110 96 85 74 55 46 49 50 42 39 45 43 42 45 47 47 47 48 51 45 41 45 44 46 43 39 41 43 42
227 228 206 164 235 162 232 220 246 174 204 222 175 149 142 208 181 192 197 168 167 166 166 167 162 166 167 164 168 173 160 150 149 143 144 141 140 145 140 137 132 135 137 139 130 119 112 106 107 104 96 88 84 83 80 74 70 67 70 69 67 78 85 90 92 91 92 97 84 83 80 72 57 50 42 58 47 46 49 47 45 46 46 46 52 51 47 43 36 39 52 53 47 44 41 43 46
209 218 173 177 173 187 202 244 163 25 311 31 158 141 199 169 222 176 178 180 166 158 163 161 160 162 165 163 165 168 156 151 145 145 147 142 143 149 143 140 139 141 142 135 126 119 116 112 107 102 101 92 85 76 75 74 71 73 72 73 71 72 75 80 85 93 93 80 82 87 82 83 73 62 56 60 63 55 49 50 49 48 48 48 50 55 53 44 42 44 51 60 52 44 43 42 48
208 221 169 163 159 158 191 152 183 189 207 260 215 113 239 167 263 185 172 149 145 143 145 146 149 152 156 155 156 154 151 150 146 147 148 143 148 150 146 143 146 147 145 131 127 125 121 118 113 106 99 84 74 72 71 71 70 72 73 76 75 73 75 79 81 81 72 79 85 87 82 81 82 68 65 63 64 63 57 48 48 47 44 46 48 49 47 42 39 39 44 56 62 51 47 43 46
202 195 117 185 231 134 143 200 115 159 152 260 227 165 317 135 11 86 102 113 110 122 135 143 149 151 152 156 161 163 154 149 145 142 145 144 148 149 146 147 153 154 142 134 130 131 129 127 117 107 98 90 86 81 79 80 79 78 75 79 81 83 82 82 84 77 68 81 89 91 92 92 93 86 76 74 67 77 65 57 50 48 46 47 49 48 45 41 33 43 43 50 60 54 51 46 45
217 193 210 204 201 111 117 142 115 117 68 256 162 13 49 76 26 76 118 117 121 128 140 149 152 153 156 159 158 158 154 148 145 147 145 145 147 151 149 152 157 144 139 138 138 137 133 122 116 107 97 87 83 84 82 81 81 80 76 79 85 86 86 89 93 80 82 93 92 96 110 124 110 103 95 77 76 71 74 68 58 49 43 46 52 50 46 43 39 43 49 52 55 50 55 52 48
148 205 234 177 273 124 134 178 142 135 140 251 108 136 161 112 190 266 130 124 134 140 149 152 150 149 153 151 153 153 150 150 149 146 143 148 149 151 150 155 151 143 140 140 138 133 122 123 119 112 103 98 91 89 89 88 94 93 91 88 85 92 98 99 100 100 102 100 99 102 100 96 108 108 94 82 75 72 70 71 67 55 50 50 56 56 51 44 42 42 47 53 54 53 56 51 52
163 196 180 178 201 228 302 110 175 147 168 277 225 156 176 161 153 160 160 148 150 149 148 149 157 156 153 150 151 148 147 148 151 149 145 150 155 153 154 152 149 142 139 138 133 125 122 116 113 110 109 108 106 98 95 94 96 103 108 110 113 110 116 127 119 109 105 103 106 108 104 103 84 75 78 76 70 66 66 64 68 63 52 49 48 53 55 50 47 49 45 50 45 52 54 51 46
255 152 166 179 128 168 135 196 164 118 221 110 288 148 220 199 162 167 171 163 162 152 158 166 165 162 157 155 155 153 154 154 154 151 151 151 157 152 151 151 150 146 139 135 127 125 121 119 115 112 107 106 107 108 114 117 115 117 121 125 131 140 141 130 119 113 107 109 111 107 98 84 85 78 76 73 69 69 67 65 59 60 54 47 46 44 50 54 53 53 53 51 44 56 57 56 51
243 195 180 172 222 192 144 224 158 156 164 171 191 283 264 217 168 163 169 168 169 165 167 166 167 168 163 159 158 156 156 157 157 156 153 154 153 150 150 152 145 140 137 130 130 128 123 121 122 122 125 128 127 138 145 146 139 132 129 130 129 128 123 118 112 110 111 114 109 102 96 94 79 78 81 79 77 72 65 63 59 54 51 45 41 40 43 53 54 56 56 55 49 55 66 60 54
198 152 201 168 189 235 189 270 269 152 126 190 169 235 266 286 175 164 169 171 168 169 163 164 168 170 160 158 155 154 154 156 155 154 151 150 149 149 149 147 143 142 143 133 132 129 127 131 130 131 131 139 144 160 162 147 136 129 130 129 119 110 106 106 106 105 103 101 96 94 97 88 88 81 77 77 77 74 68 63 58 49 45 37 29 27 29 51 50 52 47 53 51 56 65 64 52